Regional Weather Roundup
Issued by NWS

Home | Current Version | Previous Version | Graphics & Text | Print | Product List | Glossary On
Versions: 1 2 3 4 5 6 7 8 9 10 11 12 13 14 15 16 17 18 19 20 21 22 23 24 25 26 27 28 29 30 31 32 33 34 35 36 37 38 39 40 41 42 43 44 45 46 47 48 49 50
000
ASUS43 KMPX 021810
RWRMN
WEATHER ROUNDUP FOR MINNESOTA
NATIONAL WEATHER SERVICE TWIN CITIES/CHANHASSEN MN
100 PM CDT TUE JUN 02 2015


NOTE: "FAIR" INDICATES FEW OR NO CLOUDS BELOW 12,000 FEET WITH NO
SIGNIFICANT WEATHER AND/OR OBSTRUCTIONS TO VISIBILITY. N/A MEANS
CURRENT SKY AND/OR WEATHER CONDITIONS ARE NOT AVAILABLE.

MNZ060>063-068>070-021900-
   Twin Cities Metro

CITY           SKY/WX    TMP DP  RH WIND       PRES   REMARKS
TWIN CITIES    PTSUNNY   72  53  51 S12       30.03S
6HR MIN TEMP:  56; 6HR MAX TEMP:  73;

ST PAUL        MOSUNNY   72  54  53 S15       30.03F
CRYSTAL        MOSUNNY   74  53  48 S15       30.02S
BLAINE         PTSUNNY   75  54  46 S17G23    30.02F
LAKEVILLE      PTSUNNY   72  54  53 S13       30.04S
EDEN PRAIRIE   PTSUNNY   72  54  53 S13G23    30.02S
6HR MIN TEMP:  58; 6HR MAX TEMP:  73;

SOUTH ST PAUL  MOSUNNY   73  53  47 SE14G28   30.03S
LAKE ELMO      FAIR      72  55  56 S14       30.05S
$$
MNZ001>005-007-008-013>017-022>024-027-028-021900-
   Northwest Minnesota

CITY           SKY/WX    TMP DP  RH WIND       PRES   REMARKS
BEMIDJI        CLOUDY    70  56  61 S16G22    29.85F
HALLOCK        LGT RAIN  64  57  77 SW6       29.83S
ROSEAU         PTSUNNY   72  61  68 S13       29.84S
WARROAD        PTSUNNY   68  61  77 S6        29.86S
THIEF RVR FALL CLOUDY    64  57  77 E5        29.83F
CROOKSTON      CLOUDY    70  61  73 SW14      29.83R
FOSSTON        CLOUDY    70  63  78 SE7G20    29.81F
DETROIT LAKES  LGT RAIN  66  57  72 SE22      29.82F
MOORHEAD       CLOUDY    70  57  64 S30G39    29.78R
PARK RAPIDS    CLOUDY    74  53  48 S20G31    29.88F
MAHNOMEN       FAIR      68  58  69 S18       29.79F
$$
MNZ006-009>011-018-025>026-021900-
   North Central Minnesota

CITY           SKY/WX    TMP DP  RH WIND       PRES   REMARKS
BAUDETTE       CLOUDY    61  55  81 SE7       29.88S
FLAG ISLAND    CLOUDY    61  54  77 S15       29.85S
INTL FALLS     CLOUDY    58  52  80 S5        29.91F
6HR MIN TEMP:  54; 6HR MAX TEMP:  59; 6HR PCP:  0.04;

WASKISH        CLOUDY    63  57  82 SE6       29.87F
BIG FORK       CLOUDY    70  54  56 S12       29.92F
LONGVILLE      PTSUNNY   73  52  46 S15G23    29.93F
GRAND RAPIDS   PTSUNNY   72  48  43 S18G25    29.96F
CRANE LAKE     CLOUDY    61  46  59 S5        29.97F
ORR            CLOUDY    63  48  59 CALM      29.94S
COOK           CLOUDY    68  48  49 S8        29.96F
WALKER         FAIR      72  53  51 S12G22    29.89F
$$
MNZ012-019>021-037-021900-
   Northeast Minnesota

CITY           SKY/WX    TMP DP  RH WIND       PRES   REMARKS
DULUTH         MOSUNNY   70  48  45 S15       30.01F
6HR MIN TEMP:  50; 6HR MAX TEMP:  71;

ELY            CLOUDY    66  43  42 S7G17     29.98F
HIBBING        PTSUNNY   71  48  43 S10G17    29.96F
EVELETH        PTSUNNY   73  45  35 S13G22    29.98F
DULUTH HARBOR  SUNNY     50  43  76 NE5       30.03F
TWO HARBORS    MOSUNNY   72  54  53 S8G16     29.99F
SILVER BAY     MOSUNNY   70  46  43 S10G16    30.00F
GRAND MARAIS     N/A     47  38  71 NE3       30.06F
G MARAIS ARPRT PTSUNNY   57  37  47 S6        30.06S
$$
MNZ029>031-032-039>041-046>048-054>057-064-021900-
   West Central Minnesota

CITY           SKY/WX    TMP DP  RH WIND       PRES   REMARKS
FERGUS FALLS   CLOUDY    70  55  60 S16G23    29.86R
WHEATON        CLOUDY    68  55  64 SE21G30   29.84F
MORRIS         CLOUDY    70  55  60 S29G35    29.86F
ALEXANDRIA     CLOUDY    70  54  56 S23G30    29.91F
ELBOW LAKE     FAIR      67  55  64 SE26G32   29.85R
WADENA         CLOUDY    70  55  60 S21G28    29.89F
GLENWOOD       CLOUDY    70  54  56 SE18G26   29.94F
APPLETON       CLOUDY    73  54  49 SE16G24   29.88F
BENSON         CLOUDY    72  52  49 S13G21    29.91F
ORTONVILLE     CLOUDY    72  55  56 SE15G22   29.85F
MADISON        CLOUDY    75  54  46 S24       29.88F
WILLMAR        FAIR      73  54  49 S13G22    29.96F
$$
MNZ033>034-036-042>043-049>051-058-059-021900-
   Central Minnesota

CITY           SKY/WX    TMP DP  RH WIND       PRES   REMARKS
ST CLOUD       PTSUNNY   73  52  47 S16G24    29.98F
6HR MIN TEMP:  58; 6HR MAX TEMP:  73;

SAUK CENTRE    FAIR      72  54  52 S21G26    29.94F
PAYNESVILLE    CLOUDY    68  52  56 E14G22    29.97F
AITKIN         PTSUNNY   72  54  53 S12G21    29.96F
PINE RIVER     CLOUDY    72  55  56 S16       29.97F
BRAINERD       PTSUNNY   71  53  52 S17G25    29.96F
STAPLES        CLOUDY    72  54  53 S10G23    29.93F
LONG PRAIRIE   FAIR      72  54  53 SE18G29   29.95F
LITTLE FALLS   CLOUDY    72  52  49 SE15G22   29.96F
LITCHFIELD     CLOUDY    72  54  53 SE9G16    30.00F
BUFFALO        PTSUNNY   71  52  51 S9        30.03S
MAPLE LAKE     PTSUNNY   73  56  55 S10       30.02F
$$
MNZ037-044-045-052-053-021900-
   East Central Minnesota

CITY           SKY/WX    TMP DP  RH WIND       PRES   REMARKS
PRINCETON      PTSUNNY   73  54  49 S12       30.02S
MORA           PTSUNNY   70  50  49 S13       30.03F
CAMBRIDGE      MOSUNNY   75  55  50 S9G17     30.00F
RUSH CITY      MOSUNNY   71  53  52 S13       30.03S
MOOSE LAKE     SUNNY     72  48  43 SW17      29.99F
HINCKLEY       FAIR      72  54  53 SW16G22   30.02S
CLOQUET        MOSUNNY   72  46  40 S12G18    30.00F
MCGREGOR       MOSUNNY   72  50  46 S15G23    29.99F
$$
MNZ071>073-080-081-089-090-097-098-021900-
   Southwest Minnesota

CITY           SKY/WX    TMP DP  RH WIND       PRES   REMARKS
MONTEVIDEO     CLOUDY    75  55  50 S14G24    29.91F
GRANITE FALLS  CLOUDY    75  53  45 SE20      29.94F
CANBY          CLOUDY    75  57  54 S21G29    29.89F
MARSHALL       CLOUDY    75  54  46 S18G28    29.91F
REDWOOD FALLS  PTSUNNY   75  53  46 SE23G31   29.94F
OLIVIA         CLOUDY    70  52  52 SE16G22   29.95F
PIPESTONE      PTSUNNY   73  55  53 S24G32    29.92F
WINDOM         SUNNY     72  52  49 S18       29.98F
WORTHINGTON    MOSUNNY   75  54  46 S18G25    29.97F
JACKSON        SUNNY     72  54  53 SE20G25   30.00F
TRACY          PTSUNNY   74  56  51 S18G25    29.94S
SLAYTON        MOSUNNY   74  54  48 S22       29.95F
$$
MNZ065>067-074>077-082>085-091>093-021900-
   South Central Minnesota

CITY           SKY/WX    TMP DP  RH WIND       PRES   REMARKS
MANKATO        CLOUDY    72  54  53 S12       30.02S
NEW ULM        PTSUNNY   72  52  49 S13G21    29.99F
ST JAMES       PTSUNNY   75  54  46 SE16      30.00F
FAIRMONT       MOSUNNY   72  52  49 S20G28    30.00F
GLENCOE        CLOUDY    72  56  57 S9        30.02S
FARIBAULT      CLOUDY    72  54  53 S13G21    30.04S
OWATONNA       CLOUDY    72  54  53 S16G25    30.05S
WASECA         CLOUDY    72  54  53 S15G21    30.05F
ALBERT LEA     PTSUNNY   72  54  53 S18G30    30.04F
$$
MNZ078>079-086>088-094>096-021900-
   Southeast Minnesota

CITY           SKY/WX    TMP DP  RH WIND       PRES   REMARKS
ROCHESTER      PTSUNNY   69  53  56 S15G25    30.08S
6HR MIN TEMP:  52; 6HR MAX TEMP:  70;

RED WING       MOSUNNY   73  52  46 S12       30.04F
STANTON        PTSUNNY   72  53  51 S9G18     30.03S
DODGE CENTER   PTSUNNY   70  54  56 S18G24    30.06F
WINONA         MOSUNNY   73  54  49 S5        30.07F
AUSTIN         CLOUDY    66  55  68 S15G21    30.06S
PRESTON        PTSUNNY   67  52  58 SE12      30.09S
$$
ABBREVIATIONS USED IN REMARKS
   TC - TEMPERATURES IN CELSIUS
  WCI - WIND CHILL INDEX
   HX - HEAT INDEX
  VSB - VISIBILITY
$$



USA.gov is the U.S. government's official web portal to all federal, state and local government web resources and services.